レモン彗星

C/2019 S4 ( Lemmon )

English version
Home page
Updated on June 14, 2021

---------------------------------------------------------------------

・ プロフィール

発見日 2019年9月19日
発見光度 21.4等
発見者 D. Rankin (Mount Lemmon Survey)

・ 写真集

・ 軌道要素

Epoch 2020 Apr. 21.0 TT = JDT 2458960.5
T 2020 Apr. 7.93973 TT                                  Rudenko
q   3.4417364            (2000.0)            P               Q
z  +0.0041422      Peri.   71.35504     +0.17417797     -0.41759169
 +/-0.0000012      Node    63.16898     -0.12878746     -0.90750916
e   0.9857437      Incl.   92.02500     +0.97625602     -0.04521409
From 242 observations 2019 Sept. 17-2021 Apr. 1, mean residual 0".6.

・ 光度変化

        m1 = 1.7 + 5 logΔ + 25.0 log r(t - 100)

---------------------------------------------------------------------

軌道要素はM.P.E.C. 2021-J28に掲載されたものです。
光度グラフはComet for Windowsで作成したものです。

---------------------------------------------------------------------

Copyright(C) Seiichi Yoshida (comet@aerith.net). All rights reserved.